Weather History for State College, PA

Change the Weather History Date:

Saturday, February 2, 2013

  Actual Average Record
Temperature  
Mean Temperature 16 °F -  
Max Temperature 21 °F 35 °F 65 °F (1989)
Min Temperature 10 °F 20 °F -7 °F (1961)
Degree Days  
Heating Degree Days 50    
Moisture  
Dew Point 9 °F    
Average Humidity 76    
Maximum Humidity 94    
Minimum Humidity 58    
Precipitation  
Precipitation 0.00 in - - ()
Sea Level Pressure  
Sea Level Pressure 30.09 in    
Wind  
Wind Speed 8 mph (SW)    
Max Wind Speed 14 mph    
Max Gust Speed 17 mph    
Visibility 6 miles    
Events Snow    
Averages and records for this station are not official NWS values.
T = Trace of Precipitation, MM = Missing Value Source: NWS Daily Summary

Daily Weather History Graph

Daily Weather History Graph

Search for Another Location

Airport:

Trip Planner

Search our weather history database for the weather conditions in past years. The results will help you decide how hot, cold, wet, or windy it might be!

Date:

Astronomy

Feb. 02, 2013 Rise Set
Actual Time 7:20 AM EST 5:30 PM EST
Civil Twilight 6:51 AM EST 5:59 PM EST
Nautical Twilight 6:18 AM EST 6:32 PM EST
Astronomical Twilight 5:46 AM EST 7:04 PM EST
Moon No Moon Rise 10:26 AM EST (2/2)
Length of Visible Light 11h 07m
Length of Day
10h 09m
Waning Gibbous, 60% of the Moon is Illuminated
Feb 2
Waning Gibbous
Feb 3
Last Quarter
Feb 10
New
Feb 17
First Quarter
Feb 25
Full

Hourly Weather History & Observations

Time (EST) Temp. Windchill Dew Point Humidity Pressure Visibility Wind Dir Wind Speed Gust Speed Precip Events Conditions
12:15 AM 12.0 °F -0.4 °F 3.0 °F 67% 30.24 in 10.0 mi WSW 9.2 mph - N/A   Scattered Clouds
12:35 AM 11.3 °F -1.3 °F 2.8 °F 69% 30.24 in 10.0 mi WSW 9.2 mph - N/A   Mostly Cloudy
12:55 AM 11.3 °F -2.2 °F 2.1 °F 67% 30.24 in 10.0 mi WSW 10.4 mph - N/A   Scattered Clouds
1:15 AM 11.5 °F -3.4 °F 1.6 °F 64% 30.23 in 10.0 mi West 12.7 mph - N/A   Scattered Clouds
1:55 AM 11.1 °F -2.4 °F 1.4 °F 65% 30.23 in 10.0 mi WSW 10.4 mph 17.3 mph N/A   Scattered Clouds
2:15 AM 10.8 °F -1.1 °F 1.0 °F 65% 30.24 in 10.0 mi SW 8.1 mph - N/A   Scattered Clouds
2:55 AM 10.6 °F -2.2 °F 1.9 °F 68% 30.23 in 10.0 mi WSW 9.2 mph - N/A   Mostly Cloudy
3:15 AM 10.4 °F 0.8 °F 1.2 °F 66% 30.23 in 10.0 mi South 5.8 mph - N/A   Mostly Cloudy
3:35 AM 10.4 °F -0.4 °F 1.4 °F 67% 30.23 in 10.0 mi South 6.9 mph - N/A   Overcast
4:15 AM 10.2 °F -1.7 °F 1.9 °F 69% 30.22 in 10.0 mi SW 8.1 mph - N/A   Overcast
4:35 AM 10.4 °F -2.4 °F 2.3 °F 70% 30.21 in 10.0 mi SW 9.2 mph - N/A   Overcast
4:55 AM 10.6 °F -2.2 °F 2.1 °F 69% 30.21 in 10.0 mi SW 9.2 mph - N/A   Overcast
5:15 AM 11.1 °F 0.4 °F 2.5 °F 68% 30.21 in 10.0 mi SSW 6.9 mph - N/A   Overcast
5:53 AM 10.4 °F -1.5 °F 1.4 °F 67% 30.20 in 10.0 mi SW 8.1 mph - N/A   Overcast
7:53 AM 10.4 °F 0.8 °F 3.2 °F 73% 30.19 in 10.0 mi SW 5.8 mph - N/A   Mostly Cloudy
8:53 AM 12.2 °F 0.7 °F 3.2 °F 67% 30.17 in 10.0 mi SW 8.1 mph - N/A   Mostly Cloudy
9:53 AM 15.8 °F 3.4 °F 5.0 °F 62% 30.15 in 10.0 mi SW 10.4 mph - N/A   Mostly Cloudy
10:53 AM 15.8 °F 1.4 °F 5.0 °F 62% 30.15 in 10.0 mi SSW 13.8 mph - N/A   Mostly Cloudy
11:53 AM 17.6 °F 3.7 °F 5.0 °F 58% 30.09 in 6.0 mi SSW 13.8 mph - N/A Snow Light Snow
12:53 PM 19.4 °F 7.2 °F 6.8 °F 58% 30.05 in 5.0 mi SW 11.5 mph - N/A Snow Light Snow
1:53 PM 21.2 °F 9.5 °F 10.4 °F 63% 30.02 in 5.0 mi SW 11.5 mph - N/A Snow Light Snow
2:53 PM 21.2 °F 9.5 °F 12.2 °F 68% 29.99 in 3.0 mi SW 11.5 mph - N/A Snow Light Snow
3:15 PM 21.2 °F 13.6 °F 14.0 °F 74% 29.98 in 2.0 mi SW 5.8 mph - N/A Snow Light Snow
3:53 PM 21.2 °F 13.6 °F 15.8 °F 80% 29.97 in 2.0 mi SSW 5.8 mph - N/A Snow Light Snow
4:53 PM 21.2 °F 13.6 °F 17.6 °F 86% 29.96 in 2.0 mi Variable 5.8 mph - N/A Snow Light Snow
5:53 PM 19.4 °F 14.3 °F 15.8 °F 86% 29.96 in 2.0 mi SW 3.5 mph - N/A Snow Light Snow
6:53 PM 19.4 °F - 17.6 °F 93% 29.96 in 2.0 mi Calm Calm - N/A Snow Light Snow
7:53 PM 19.4 °F 14.3 °F 17.6 °F 93% 29.96 in 2.0 mi SSW 3.5 mph - N/A Snow Light Snow
8:53 PM 19.4 °F - 17.6 °F 93% 29.95 in 1.5 mi Calm Calm - N/A Snow Light Snow
9:35 PM 19.4 °F - 17.6 °F 93% 29.95 in 2.0 mi Calm Calm - N/A Snow Light Snow
9:55 PM 19.4 °F - 18.0 °F 94% 29.94 in 1.5 mi Calm Calm - N/A Snow Light Snow
10:15 PM 19.8 °F - 18.0 °F 93% 29.94 in 2.0 mi Calm Calm - N/A Snow Light Snow
10:35 PM 19.8 °F - 17.8 °F 92% 29.94 in 2.0 mi Calm Calm - N/A Snow Light Snow
10:55 PM 19.8 °F - 17.6 °F 91% 29.93 in 5.0 mi Calm Calm - N/A Snow Light Snow
11:15 PM 19.4 °F - 17.6 °F 93% 29.93 in 3.0 mi Calm Calm - N/A Snow Light Snow
11:35 PM 19.4 °F - 17.6 °F 93% 29.93 in 5.0 mi Calm Calm - N/A Snow Light Snow
11:55 PM 19.4 °F - 17.6 °F 93% 29.93 in 3.0 mi Calm Calm - N/A Snow Light Snow